Location: Ch�risy
(50.2331°N, 2.9131°E)
Time: 22:24:59
(UTC+00:00)

USA 281 - Pass Details

Date: 17 January 2021
Orbit: 1072 x 1086 km, 106.0° (Epoch: 26 February)

Event Time Altitude Azimuth Distance (km) Brightness Sun altitude
Exits shadow 20:28:43 34° 330° (NNW) 1,706 4.4 -39.4°
Drops below altitude 10° 20:32:13 10° 333° (NNW) 2,942 5.9 -39.9°
Sets 20:34:44 0° 334° (NNW) 3,901 6.6 -40.3°
